Find Starlink 31107

NORAD ID: 58684 Int'l Des: 2023-211 Owner: SPXS Country: US Constellation: starlink operational
LEOCIRCULAR

实时位置

正在加载3D地球...

关于 Starlink 31107

正在加载描述...

即将过境

Passes for default location (London). Set your location on the main map for personalized predictions.

高度历史

Loading altitude history...

两行轨道根数

1 58684U 23211T 26132.59569248 .00001174 00000-0 52189-4 0 9994
2 58684 43.0048 84.7600 0001400 276.2316 83.8376 15.27576634132231
Epoch: May 12, 2026 • Age: 15 hours

当前状态

高度 488.1 km
速度 7.62 km/s
星下点 -23.04°S, 23.15°W
发射日期 Dec 29, 2023
运行时间 2.3 years
类型 internet

技术详情

分类 Payload
质量 730.00 kg
干质量 700.00 kg
总质量 730.00 kg
长度 0.30 m
直径 4.10 m
跨度 29.00 m
形状 Box + pan
制造商 SPXS
平台类型 Starlink V2M
阶段状态 In Orbit
所有者/国家 SPXS/US

Most Searched